User: anonymous   Login
Location: Unspecified
(0.0000°N, 0.0000°E)
Time: 20:22:45
(UTC+00:00)
Language:

STARLINK-4307 - Orbit

View from above orbital plane
View from above orbital plane
View from above satellite
View from above satellite

Ground track
Ground track

The orbit is defined by the following mean orbital elements,

1 53063U          26145.38868176 +.00000000 +00000-0 -46142-4 0 00007
2 53063  97.4467 326.3777 0001094 131.9080 228.2241 15.05665082    06
Epoch (UTC): 25 May 2026 09:19:42
Eccentricity: 0.0001094
inclination: 97.4467°
perigee height: 549 km
apogee height: 550 km
right ascension of ascending node: 326.3777°
argument of perigee: 131.9080°
revolutions per day: 15.05665082
mean anomaly at epoch: 228.2241°

The dashed part of the orbit path shows where the satellite is in the earth's shadow,  

DLR